| time (UTC) | temp F | wind direction | speed knots | gust knots | rain 1hr in | rain 24hr in | rain mn in | humidity % | barometer mb |
| 20260503210048 | 85 | 215 | 12.2 | 0.0 | 0.00 | 0.00 | 0.00 | 20 | 1003.8 |
| 20260503204555 | 86 | 206 | 11.3 | 0.0 | 0.00 | 0.00 | 0.00 | 19 | 1003.9 |
| 20260503203049 | 86 | 162 | 11.3 | 0.0 | 0.00 | 0.00 | 0.00 | 18 | 1004.2 |
| 20260503201543 | 87 | 162 | 10.4 | 0.0 | 0.00 | 0.00 | 0.00 | 16 | 1004.4 |
| 20260503200043 | 88 | 167 | 10.4 | 0.0 | 0.00 | 0.00 | 0.00 | 15 | 1004.5 |
| 20260503194545 | 87 | 184 | 10.4 | 0.0 | 0.00 | 0.00 | 0.00 | 15 | 1004.7 |
| 20260503193049 | 89 | 157 | 8.7 | 0.0 | 0.00 | 0.00 | 0.00 | 13 | 1004.9 |
| 20260503191543 | 87 | 179 | 10.4 | 0.0 | 0.00 | 0.00 | 0.00 | 14 | 1005.2 |
| 20260503190046 | 88 | 215 | 7.8 | 0.0 | 0.00 | 0.00 | 0.00 | 13 | 1005.5 |
| 20260503184539 | 87 | 189 | 7.8 | 0.0 | 0.00 | 0.00 | 0.00 | 11 | 1005.5 |
| 20260503183045 | 87 | 184 | 8.7 | 0.0 | 0.00 | 0.00 | 0.00 | 12 | 1005.6 |
| 20260503181539 | 88 | 152 | 7.8 | 0.0 | 0.00 | 0.00 | 0.00 | 11 | 1005.8 |
| 20260503180044 | 87 | 218 | 10.4 | 0.0 | 0.00 | 0.00 | 0.00 | 12 | 1005.8 |
| 20260503174531 | 85 | 93 | 4.3 | 0.0 | 0.00 | 0.00 | 0.00 | 19 | 1006.0 |
| 20260503173029 | 85 | 96 | 2.6 | 0.0 | 0.00 | 0.00 | 0.00 | 18 | 1006.1 |
| 20260503171535 | 84 | 82 | 2.6 | 0.0 | 0.00 | 0.00 | 0.00 | 19 | 1006.2 |
| 20260503081534 | 77 | 224 | 2.6 | 0.0 | 0.00 | 0.00 | 0.00 | 14 | 1006.1 |
| 20260503071513 | 78 | 291 | 0.9 | 0.0 | 0.00 | 0.00 | 0.00 | 14 | 1006.5 |
| 20260503054506 | 80 | 288 | 1.7 | 0.0 | 0.00 | 0.00 | 0.00 | 13 | 1006.8 |
| 20260503053008 | 81 | 252 | 0.9 | 0.0 | 0.00 | 0.00 | 0.00 | 13 | 1006.8 |
| 20260503051502 | 82 | 286 | 0.9 | 0.0 | 0.00 | 0.00 | 0.00 | 13 | 1006.7 |
| 20260503050002 | 82 | 286 | 0.9 | 0.0 | 0.00 | 0.00 | 0.00 | 13 | 1006.5 |
| 20260503044502 | 82 | 323 | 4.3 | 0.0 | 0.00 | 0.00 | 0.00 | 14 | 1006.3 |
| 20260503043001 | 82 | 303 | 3.5 | 0.0 | 0.00 | 0.00 | 0.00 | 13 | 1006.2 |
| 20260503041502 | 82 | 260 | 1.7 | 0.0 | 0.00 | 0.00 | 0.00 | 13 | 1005.9 |
| 20260503040001 | 84 | 272 | 2.6 | 0.0 | 0.00 | 0.00 | 0.00 | 13 | 1005.9 |
| 20260503034600 | 83 | 294 | 4.3 | 0.0 | 0.00 | 0.00 | 0.00 | 17 | 1005.6 |
| 20260503033103 | 84 | 263 | 5.2 | 0.0 | 0.00 | 0.00 | 0.00 | 17 | 1005.4 |
| 20260503031559 | 85 | 267 | 7.0 | 0.0 | 0.00 | 0.00 | 0.00 | 17 | 1005.3 |
| 20260503030059 | 86 | 226 | 7.0 | 0.0 | 0.00 | 0.00 | 0.00 | 13 | 1005.2 |
| 20260503024605 | 86 | 273 | 3.5 | 0.0 | 0.00 | 0.00 | 0.00 | 14 | 1005.0 |
| 20260503023103 | 87 | 230 | 3.5 | 0.0 | 0.00 | 0.00 | 0.00 | 15 | 1004.9 |
| 20260503021601 | 87 | 130 | 3.5 | 0.0 | 0.00 | 0.00 | 0.00 | 14 | 1004.6 |
| 20260503020100 | 88 | 96 | 5.2 | 0.0 | 0.00 | 0.00 | 0.00 | 12 | 1004.6 |
| 20260503014623 | 89 | 66 | 5.2 | 0.0 | 0.00 | 0.00 | 0.00 | 12 | 1004.4 |
| 20260503013056 | 89 | 43 | 5.2 | 0.0 | 0.00 | 0.00 | 0.00 | 11 | 1004.3 |
| 20260503011616 | 89 | 61 | 5.2 | 0.0 | 0.00 | 0.00 | 0.00 | 11 | 1004.3 |
| 20260503010058 | 90 | 22 | 6.1 | 0.0 | 0.00 | 0.00 | 0.00 | 11 | 1004.2 |
| 20260503004600 | 90 | 54 | 4.3 | 0.0 | 0.00 | 0.00 | 0.00 | 11 | 1004.3 |
| 20260503003057 | 90 | 52 | 5.2 | 0.0 | 0.00 | 0.00 | 0.00 | 10 | 1004.4 |
| 20260503001556 | 90 | 44 | 6.1 | 0.0 | 0.00 | 0.00 | 0.00 | 11 | 1004.3 |
| 20260503000051 | 90 | 77 | 5.2 | 0.0 | 0.00 | 0.00 | 0.00 | 11 | 1004.5 |
| 20260502234552 | 91 | 54 | 7.8 | 0.0 | 0.00 | 0.00 | 0.00 | 10 | 1004.5 |
| 20260502233053 | 91 | 46 | 5.2 | 0.0 | 0.00 | 0.00 | 0.00 | 10 | 1004.7 |
| 20260502231548 | 90 | 48 | 5.2 | 0.0 | 0.00 | 0.00 | 0.00 | 10 | 1004.9 |
| 20260502230047 | 91 | 69 | 3.5 | 0.0 | 0.00 | 0.00 | 0.00 | 10 | 1005.0 |
| 20260502224558 | 91 | 65 | 3.5 | 0.0 | 0.00 | 0.00 | 0.00 | 9 | 1005.3 |
| 20260502223044 | 91 | 137 | 7.0 | 0.0 | 0.00 | 0.00 | 0.00 | 9 | 1005.7 |
| 20260502221540 | 91 | 292 | 3.5 | 0.0 | 0.00 | 0.00 | 0.00 | 9 | 1005.9 |
| 20260502220038 | 91 | 86 | 6.1 | 0.0 | 0.00 | 0.00 | 0.00 | 9 | 1006.3 |
| 20260502214535 | 91 | 55 | 5.2 | 0.0 | 0.00 | 0.00 | 0.00 | 9 | 1006.6 |
| 20260502213034 | 90 | 44 | 6.1 | 0.0 | 0.00 | 0.00 | 0.00 | 9 | 1006.6 |
| 20260502211541 | 90 | 129 | 4.3 | 0.0 | 0.00 | 0.00 | 0.00 | 9 | 1006.8 |